Weather History for Sacramento / Mc Clellan, CA

Change the Weather History Date:

Saturday, March 29, 2014

  Actual Average (KMHR) Record (KMHR)
Temperature  
Mean Temperature 54 °F -  
Max Temperature 57 °F 66 °F 80 °F (2002)
Min Temperature 48 °F 41 °F 35 °F (2007)
Degree Days  
Heating Degree Days 12    
Growing Degree Days 4 (Base 50)    
Moisture  
Dew Point 50 °F    
Average Humidity 85    
Maximum Humidity 100    
Minimum Humidity 67    
Precipitation  
Precipitation 0.00 in - - ()
Sea Level Pressure  
Sea Level Pressure 30.06 in    
Wind  
Wind Speed 10 mph (SSE)    
Max Wind Speed 18 mph    
Max Gust Speed 18 mph    
Visibility 8 miles    
Events Rain    
Averages and records for this station are not official NWS values.
T = Trace of Precipitation, MM = Missing Value Source: NWS Daily Summary

Daily Weather History Graph

Daily Weather History Graph

Search for Another Location

Airport:

Trip Planner

Search our weather history database for the weather conditions in past years. The results will help you decide how hot, cold, wet, or windy it might be!

Date:

Astronomy

Mar. 29, 2014 Rise Set
Actual Time 6:54 AM PDT 7:26 PM PDT
Civil Twilight 6:28 AM PDT 7:53 PM PDT
Nautical Twilight 5:56 AM PDT 8:24 PM PDT
Astronomical Twilight 5:24 AM PDT 8:56 PM PDT
Moon 6:06 AM PDT (3/29) 6:37 PM PDT (3/29)
Length of Visible Light 13h 24m
Length of Day
12h 31m
Waning Crescent, 1% of the Moon is Illuminated
Mar 29
Waning Crescent
Mar 30
New
Apr 7
First Quarter
Apr 15
Full
Apr 22
Last Quarter

Hourly Weather History & Observations

Time (PDT) Temp. Dew Point Humidity Pressure Visibility Wind Dir Wind Speed Gust Speed Precip Events Conditions
12:15 AM 57.2 °F 48.2 °F 72% 30.14 in 10.0 mi South 10.4 mph - N/A   Mostly Cloudy
12:35 AM 57.2 °F 48.2 °F 72% 30.14 in 10.0 mi South 10.4 mph - N/A   Mostly Cloudy
12:55 AM 57.2 °F 48.2 °F 72% 30.13 in 10.0 mi SSE 10.4 mph - N/A   Overcast
1:15 AM 57.2 °F 48.2 °F 72% 30.13 in 10.0 mi SSE 8.1 mph - N/A   Overcast
1:35 AM 57.2 °F 48.2 °F 72% 30.13 in 10.0 mi SSE 8.1 mph - N/A   Overcast
1:55 AM 57.2 °F 48.2 °F 72% 30.13 in 10.0 mi SSE 9.2 mph - N/A   Overcast
2:15 AM 57.2 °F 48.2 °F 72% 30.12 in 10.0 mi SE 11.5 mph - N/A   Scattered Clouds
2:35 AM 55.4 °F 48.2 °F 77% 30.12 in 10.0 mi SSE 9.2 mph - N/A   Clear
2:55 AM 55.4 °F 48.2 °F 77% 30.12 in 10.0 mi SSE 8.1 mph - N/A   Clear
3:15 AM 57.2 °F 48.2 °F 72% 30.11 in 10.0 mi SE 11.5 mph - N/A   Clear
3:35 AM 57.2 °F 48.2 °F 72% 30.10 in 10.0 mi SSE 10.4 mph - N/A   Clear
3:55 AM 55.4 °F 48.2 °F 77% 30.10 in 10.0 mi SE 9.2 mph - N/A   Clear
4:15 AM 55.4 °F 46.4 °F 72% 30.09 in 10.0 mi SE 11.5 mph - N/A   Partly Cloudy
4:35 AM 55.4 °F 48.2 °F 77% 30.08 in 10.0 mi SE 10.4 mph - N/A   Mostly Cloudy
4:55 AM 55.4 °F 46.4 °F 72% 30.08 in 10.0 mi SSE 8.1 mph - N/A   Mostly Cloudy
5:15 AM 55.4 °F 46.4 °F 72% 30.08 in 10.0 mi SSE 9.2 mph - N/A   Mostly Cloudy
5:35 AM 55.4 °F 46.4 °F 72% 30.08 in 10.0 mi SSE 10.4 mph - N/A   Mostly Cloudy
5:55 AM 55.4 °F 46.4 °F 72% 30.08 in 10.0 mi SSE 10.4 mph - N/A   Mostly Cloudy
6:15 AM 55.4 °F 46.4 °F 72% 30.08 in 10.0 mi SSE 10.4 mph - N/A   Overcast
6:35 AM 55.4 °F 46.4 °F 72% 30.08 in 10.0 mi South 10.4 mph - N/A   Overcast
6:55 AM 55.4 °F 46.4 °F 72% 30.08 in 10.0 mi South 10.4 mph - N/A   Overcast
7:15 AM 55.4 °F 46.4 °F 72% 30.08 in 10.0 mi SSE 10.4 mph - N/A   Overcast
7:35 AM 57.2 °F 46.4 °F 67% 30.07 in 10.0 mi SE 10.4 mph - N/A   Mostly Cloudy
7:55 AM 57.2 °F 46.4 °F 67% 30.06 in 10.0 mi SE 11.5 mph - N/A   Mostly Cloudy
8:15 AM 57.2 °F 48.2 °F 72% 30.06 in 10.0 mi SE 11.5 mph - N/A   Mostly Cloudy
8:35 AM 55.4 °F 48.2 °F 77% 30.07 in 5.0 mi SSE 10.4 mph - N/A Rain Light Rain
8:55 AM 55.4 °F 50.0 °F 82% 30.07 in 5.0 mi SSE 10.4 mph - N/A Rain Light Rain
9:15 AM 55.4 °F 50.0 °F 82% 30.08 in 3.0 mi SSE 8.1 mph - N/A Rain Light Rain
9:35 AM 53.6 °F 50.0 °F 88% 30.08 in 2.0 mi SSE 10.4 mph - N/A Rain Light Rain
9:55 AM 53.6 °F 50.0 °F 88% 30.08 in 1.8 mi SSE 11.5 mph - N/A Rain Light Rain
10:15 AM 53.6 °F 50.0 °F 88% 30.08 in 2.0 mi SSE 12.7 mph - N/A Rain Light Rain
10:35 AM 53.6 °F 51.8 °F 94% 30.09 in 1.5 mi SSE 11.5 mph - N/A Rain Light Rain
10:55 AM 53.6 °F 51.8 °F 94% 30.09 in 1.2 mi SSE 12.7 mph - N/A Rain Light Rain
11:15 AM 53.6 °F 51.8 °F 94% 30.08 in 2.0 mi SE 15.0 mph - N/A Rain Light Rain
11:35 AM 53.6 °F 51.8 °F 94% 30.08 in 2.5 mi SE 13.8 mph - N/A Rain Light Rain
11:55 AM 53.6 °F 51.8 °F 94% 30.07 in 2.5 mi SE 18.4 mph - N/A Rain Light Rain
12:15 PM 55.4 °F 53.6 °F 94% 30.08 in 3.0 mi SSE 15.0 mph 18.4 mph N/A Rain Light Rain
12:35 PM 55.4 °F 53.6 °F 94% 30.09 in 4.0 mi SSE 11.5 mph - N/A Rain Light Rain
12:55 PM 55.4 °F 53.6 °F 94% 30.08 in 2.0 mi SSE 13.8 mph - N/A Rain Light Rain
1:15 PM 55.4 °F 53.6 °F 94% 30.08 in 3.0 mi SSE 11.5 mph - N/A Rain Light Rain
1:35 PM 55.4 °F 53.6 °F 94% 30.07 in 3.0 mi SSE 12.7 mph - N/A Rain Light Rain
1:55 PM 55.4 °F 53.6 °F 94% 30.06 in 4.0 mi SSE 10.4 mph - N/A Rain Light Rain
2:15 PM 55.4 °F 53.6 °F 94% 30.05 in 10.0 mi SSE 9.2 mph - N/A Rain Light Rain
2:35 PM 57.2 °F 53.6 °F 88% 30.04 in 9.0 mi SSE 8.1 mph - N/A   Clear
2:55 PM 55.4 °F 53.6 °F 94% 30.05 in 3.0 mi South 12.7 mph - N/A Rain Light Rain
3:15 PM 55.4 °F 53.6 °F 94% 30.05 in 3.0 mi SSW 10.4 mph - N/A Rain Light Rain
3:35 PM 55.4 °F 53.6 °F 94% 30.05 in 1.5 mi South 6.9 mph - N/A Rain Light Rain
3:55 PM 55.4 °F 53.6 °F 94% 30.03 in 5.0 mi South 6.9 mph - N/A Rain Light Rain
4:15 PM 55.4 °F 53.6 °F 94% 30.02 in 8.0 mi SE 6.9 mph - N/A Rain Light Rain
4:35 PM 55.4 °F 53.6 °F 94% 30.02 in 9.0 mi SE 6.9 mph - N/A Rain Light Rain
4:55 PM 55.4 °F 53.6 °F 94% 30.01 in 10.0 mi SE 6.9 mph - N/A   Clear
5:15 PM 55.4 °F 53.6 °F 94% 30.01 in 10.0 mi South 6.9 mph - N/A   Scattered Clouds
5:35 PM 55.4 °F 53.6 °F 94% 30.02 in 10.0 mi SSW 9.2 mph - N/A   Overcast
5:55 PM 55.4 °F 53.6 °F 94% 30.01 in 10.0 mi SSE 6.9 mph - N/A   Scattered Clouds
6:15 PM 55.4 °F 53.6 °F 94% 30.01 in 9.0 mi SSE 10.4 mph - N/A Rain Light Rain
6:35 PM 55.4 °F 53.6 °F 94% 30.00 in 10.0 mi SE 12.7 mph - N/A   Partly Cloudy
6:55 PM 55.4 °F 53.6 °F 94% 30.00 in 10.0 mi SE 5.8 mph - N/A   Clear
7:15 PM 55.4 °F 51.8 °F 88% 30.00 in 10.0 mi SSE 5.8 mph - N/A   Clear
7:35 PM 53.6 °F 53.6 °F 100% 30.00 in 10.0 mi SE 8.1 mph - N/A   Partly Cloudy
7:55 PM 53.6 °F 53.6 °F 100% 30.00 in 10.0 mi South 4.6 mph - N/A   Scattered Clouds
8:15 PM 53.6 °F 51.8 °F 94% 30.00 in 10.0 mi South 11.5 mph - N/A   Mostly Cloudy
8:35 PM 53.6 °F 50.0 °F 88% 30.01 in 10.0 mi South 6.9 mph - N/A   Scattered Clouds
8:55 PM 53.6 °F 50.0 °F 88% 30.02 in 8.0 mi South 6.9 mph - N/A Rain Light Rain
9:15 PM 53.6 °F 50.0 °F 88% 30.03 in 3.0 mi SSW 6.9 mph - N/A Rain Light Rain
9:35 PM 53.6 °F 50.0 °F 88% 30.02 in 4.0 mi South 8.1 mph - N/A Rain Light Rain
9:55 PM 51.8 °F 50.0 °F 94% 30.01 in 10.0 mi South 6.9 mph - N/A   Scattered Clouds
10:15 PM 51.8 °F 50.0 °F 94% 30.01 in 10.0 mi South 6.9 mph - N/A   Clear
10:35 PM 51.8 °F 50.0 °F 94% 30.01 in 10.0 mi SSE 8.1 mph - N/A   Mostly Cloudy
10:55 PM 50.0 °F 50.0 °F 100% 30.01 in 10.0 mi SSE 9.2 mph - N/A   Scattered Clouds
11:15 PM 50.0 °F 50.0 °F 100% 30.01 in 8.0 mi ESE 8.1 mph - N/A   Clear
11:35 PM 50.0 °F 46.4 °F 87% 30.02 in 10.0 mi ESE 12.7 mph - N/A   Mostly Cloudy
11:55 PM 48.2 °F 46.4 °F 93% 30.02 in 10.0 mi East 9.2 mph - N/A   Partly Cloudy